LEGION 4

Last updated on Mon Sep 21 2026 00:02:46 GMT+0000 (Coordinated Universal Time)

1 60453U 24146B 26263.55397887 .00001799 00000+0 10537-3 0 9990 2 60453 45.0031 331.0875 0008797 135.8891 224.2691 15.16081352115348
UTC large
Height (km)
Speed (km/s)
/
Latitude / Longitude
Inclination (degrees)
Orbital Period (minutes)
Azimuth
Elevation
Range (km)
Doppler Factor

Next 0 passes for location: London (51.5072 / 0.1276)

No passes found over London.
LEGION 4